Indianapolis, IN

6:45 AM EDT on August 20, 2019 (GMT -0400)
Indianapolis Terry

Weather History for KTYQ - July, 2019

Change the Weather History Date:

Wednesday, July 17, 2019

  Actual Average (WUND) Record (WUND)
Temperature  
Mean Temperature 80 °F -  
Max Temperature 88 °F - - (-1)
Min Temperature 71 °F - - (-1)
Cooling Degree Days 14    
Growing Degree Days 30 (Base 50)    
Moisture  
Dew Point 74 °F    
Average Humidity 88    
Maximum Humidity 100    
Minimum Humidity 54    
Precipitation  
Precipitation 0.13 in - - ()
Sea Level Pressure  
Sea Level Pressure 29.93 in    
Wind  
Wind Speed 5 mph (West)    
Max Wind Speed 12 mph    
Max Gust Speed 16 mph    
Visibility 9 miles    
Events Rain    
Averages and records for this station are not official NWS values.
T = Trace of Precipitation, MM = Missing Value Source: NWS Daily Summary

Daily Weather History Graph

Daily Weather History Graph

Search for Another Location

Airport or City:

Astronomy

Jul. 17, 2019 Rise Set
Actual Time 6:30 AM EDT 9:11 PM EDT
Civil Twilight 5:58 AM EDT 9:43 PM EDT
Nautical Twilight 5:18 AM EDT 10:23 PM EDT
Astronomical Twilight 4:33 AM EDT 11:07 PM EDT
Moon 10:00 PM EDT (7/17) 7:02 AM EDT (7/17)
Length of Visible Light 15h 45m
Length of Day
14h 41m
Waxing Gibbous, 99% of the Moon is Illuminated
Jul 17
Waxing Gibbous
Jul 24
Last Quarter
Jul 31
New
Aug 7
First Quarter
Aug 15
Full

Hourly Weather History & Observations

Time (EDT) Temp. Heat Index Dew Point Humidity Pressure Visibility Wind Dir Wind Speed Gust Speed Precip Events Conditions
12:15 AM 71.6 °F - 71.6 °F 100% 29.90 in 10.0 mi SSW 8.1 mph - N/A   Overcast
12:35 AM 71.8 °F - 71.8 °F 100% 29.90 in 10.0 mi SSW 6.9 mph - N/A   Overcast
12:55 AM 72.0 °F - 72.0 °F 100% 29.90 in 10.0 mi SSW 5.8 mph - N/A   Overcast
1:15 AM 72.1 °F - 72.1 °F 100% 29.90 in 10.0 mi SSW 5.8 mph - N/A Rain Light Rain
1:35 AM 72.1 °F - 72.1 °F 100% 29.90 in 10.0 mi SSW 5.8 mph - N/A   Overcast
1:55 AM 72.1 °F - 72.1 °F 100% 29.90 in 10.0 mi SSW 4.6 mph - N/A   Overcast
2:15 AM 72.5 °F - 72.5 °F 100% 29.90 in 10.0 mi WSW 3.5 mph - N/A   Overcast
2:35 AM 72.5 °F - 72.5 °F 100% 29.90 in 10.0 mi SW 4.6 mph - N/A   Overcast
2:55 AM 72.5 °F - 72.5 °F 100% 29.89 in 10.0 mi WSW 4.6 mph - N/A   Overcast
3:15 AM 72.5 °F - 72.5 °F 100% 29.89 in 7.0 mi WSW 5.8 mph - N/A   Overcast
3:35 AM 72.5 °F - 72.5 °F 100% 29.88 in 10.0 mi West 4.6 mph - N/A   Overcast
3:55 AM 72.5 °F - 72.5 °F 100% 29.88 in 7.0 mi West 3.5 mph - N/A Rain Rain
4:15 AM 72.5 °F - 72.5 °F 100% 29.88 in 7.0 mi West 4.6 mph - N/A Rain Light Rain
4:35 AM 72.1 °F - 72.1 °F 100% 29.89 in 3.0 mi West 4.6 mph - 0.13 in Rain Heavy Rain
4:55 AM 72.5 °F - 72.5 °F 100% 29.89 in 10.0 mi WNW 3.5 mph - 0.13 in   Overcast
5:15 AM 72.5 °F - 72.5 °F 100% 29.89 in 7.0 mi WNW 4.6 mph - N/A   Overcast
5:35 AM 72.5 °F - 72.5 °F 100% 29.89 in 5.0 mi NW 5.8 mph - N/A Rain Light Rain
5:55 AM 72.5 °F - 72.5 °F 100% 29.90 in 7.0 mi NW 6.9 mph - N/A   Overcast
6:15 AM 72.5 °F - 72.5 °F 100% 29.90 in 5.0 mi WNW 4.6 mph - N/A   Overcast
6:35 AM 72.1 °F - 72.1 °F 100% 29.91 in 7.0 mi WNW 5.8 mph - N/A   Overcast
6:55 AM 71.8 °F - 71.8 °F 100% 29.91 in 5.0 mi WNW 4.6 mph - N/A   Mostly Cloudy
7:15 AM 71.8 °F - 71.8 °F 100% 29.91 in 5.0 mi West 4.6 mph - N/A   Mostly Cloudy
7:35 AM 72.3 °F - 72.3 °F 100% 29.92 in 5.0 mi Calm Calm - N/A   Overcast
7:55 AM 72.5 °F - 72.5 °F 100% 29.93 in 5.0 mi Calm Calm - N/A   Overcast
8:15 AM 72.5 °F - 72.5 °F 100% 29.93 in 5.0 mi WNW 3.5 mph - N/A   Overcast
8:35 AM 72.9 °F - 72.9 °F 100% 29.94 in 5.0 mi WNW 4.6 mph - N/A   Overcast
8:55 AM 73.4 °F - 73.4 °F 100% 29.94 in 7.0 mi NW 3.5 mph - N/A   Overcast
9:15 AM 73.4 °F - 73.4 °F 100% 29.95 in 7.0 mi NW 3.5 mph - N/A   Overcast
9:35 AM 74.1 °F - 74.1 °F 100% 29.95 in 10.0 mi WNW 4.6 mph - N/A   Mostly Cloudy
9:55 AM 75.4 °F - 75.4 °F 100% 29.96 in 10.0 mi NW 6.9 mph - N/A   Mostly Cloudy
10:15 AM 75.9 °F - 75.7 °F 99% 29.96 in 10.0 mi WNW 5.8 mph - N/A   Overcast
10:35 AM 76.1 °F - 76.1 °F 100% 29.96 in 10.0 mi WNW 4.6 mph - N/A   Overcast
10:55 AM 76.5 °F - 76.1 °F 99% 29.96 in 10.0 mi WNW 5.8 mph - N/A   Overcast
11:15 AM 78.1 °F - 76.5 °F 95% 29.97 in 10.0 mi WNW 5.8 mph - N/A   Overcast
11:35 AM 79.0 °F - 75.9 °F 90% 29.97 in 10.0 mi WNW 6.9 mph - N/A   Overcast
11:55 AM 79.2 °F - 75.9 °F 90% 29.97 in 10.0 mi WNW 4.6 mph - N/A   Overcast
12:15 PM 78.4 °F - 75.7 °F 91% 29.97 in 10.0 mi West 5.8 mph - N/A   Mostly Cloudy
12:35 PM 81.0 °F 87.3 °F 75.9 °F 85% 29.97 in 10.0 mi Calm Calm - N/A   Scattered Clouds
12:55 PM 81.1 °F 87.6 °F 75.7 °F 84% 29.97 in 10.0 mi West 6.9 mph - N/A   Mostly Cloudy
1:15 PM 81.1 °F 87.4 °F 75.4 °F 83% 29.97 in 10.0 mi West 6.9 mph - N/A   Mostly Cloudy
1:35 PM 82.9 °F 89.7 °F 74.5 °F 75% 29.97 in 10.0 mi WNW 5.8 mph - N/A   Mostly Cloudy
1:55 PM 82.4 °F 89.0 °F 74.5 °F 77% 29.97 in 10.0 mi West 5.8 mph - N/A   Mostly Cloudy
2:15 PM 83.3 °F 90.5 °F 74.5 °F 75% 29.97 in 10.0 mi West 6.9 mph - N/A   Overcast
2:35 PM 85.1 °F 93.3 °F 74.7 °F 71% 29.96 in 10.0 mi West 8.1 mph - N/A   Mostly Cloudy
2:55 PM 83.8 °F 91.4 °F 74.7 °F 74% 29.96 in 10.0 mi West 11.5 mph - N/A   Overcast
3:15 PM 84.4 °F 93.1 °F 75.7 °F 75% 29.96 in 10.0 mi WNW 8.1 mph - N/A   Scattered Clouds
3:35 PM 84.0 °F 92.2 °F 75.4 °F 75% 29.96 in 10.0 mi West 6.9 mph - N/A   Scattered Clouds
3:55 PM 85.1 °F 93.7 °F 75.2 °F 72% 29.95 in 10.0 mi West 8.1 mph - N/A   Mostly Cloudy
4:15 PM 86.2 °F 94.6 °F 74.7 °F 68% 29.94 in 10.0 mi West 9.2 mph - N/A   Scattered Clouds
4:35 PM 87.4 °F 96.7 °F 75.0 °F 66% 29.93 in 10.0 mi WNW 8.1 mph - N/A   Scattered Clouds
4:55 PM 86.4 °F 95.1 °F 74.5 °F 68% 29.93 in 10.0 mi West 5.8 mph 16.1 mph N/A   Mostly Cloudy
5:15 PM 86.4 °F 95.5 °F 75.2 °F 69% 29.93 in 10.0 mi WNW 6.9 mph - N/A   Mostly Cloudy
5:35 PM 84.4 °F 92.0 °F 74.3 °F 72% 29.93 in 10.0 mi NW 6.9 mph - N/A Rain Light Rain
5:55 PM 86.5 °F 94.6 °F 73.8 °F 66% 29.94 in 10.0 mi WNW 11.5 mph - N/A   Mostly Cloudy
6:15 PM 88.0 °F 96.5 °F 73.8 °F 63% 29.94 in 10.0 mi NW 8.1 mph - N/A   Mostly Cloudy
6:35 PM 85.3 °F 91.1 °F 71.8 °F 64% 29.94 in 10.0 mi NW 9.2 mph - N/A   Mostly Cloudy
6:55 PM 86.0 °F 91.5 °F 71.2 °F 61% 29.93 in 10.0 mi NW 8.1 mph - N/A   Scattered Clouds
7:15 PM 85.8 °F 90.1 °F 69.4 °F 58% 29.94 in 10.0 mi NW 9.2 mph - N/A   Clear
7:35 PM 86.4 °F 89.7 °F 68.0 °F 54% 29.94 in 10.0 mi WNW 5.8 mph - N/A   Clear
7:55 PM 84.6 °F 87.4 °F 67.1 °F 56% 29.94 in 10.0 mi NW 6.9 mph - N/A   Clear
8:15 PM 83.1 °F 87.1 °F 69.8 °F 64% 29.94 in 10.0 mi NW 4.6 mph - N/A   Clear
8:35 PM 81.3 °F 85.9 °F 72.1 °F 74% 29.94 in 10.0 mi NNW 3.5 mph - N/A   Clear
8:55 PM 80.8 °F 85.4 °F 72.9 °F 77% 29.95 in 10.0 mi NW 3.5 mph - N/A   Scattered Clouds
9:15 PM 79.2 °F - 73.9 °F 84% 29.95 in 10.0 mi Calm Calm - N/A   Scattered Clouds
9:35 PM 78.1 °F - 76.3 °F 94% 29.96 in 10.0 mi WSW 3.5 mph - N/A   Mostly Cloudy
9:55 PM 77.5 °F - 76.5 °F 96% 29.95 in 10.0 mi Calm Calm - N/A   Scattered Clouds
10:15 PM 75.7 °F - 75.7 °F 100% 29.96 in 10.0 mi Calm Calm - N/A   Clear
10:35 PM 75.7 °F - 75.7 °F 100% 29.96 in 10.0 mi Calm Calm - N/A   Scattered Clouds
10:55 PM 75.4 °F - 75.4 °F 100% 29.96 in 10.0 mi Calm Calm - N/A   Scattered Clouds
11:15 PM 74.8 °F - 74.8 °F 100% 29.95 in 10.0 mi SE 3.5 mph - N/A   Clear
11:35 PM 74.8 °F - 74.8 °F 100% 29.95 in 10.0 mi Calm Calm - N/A   Clear
11:55 PM 75.2 °F - 75.2 °F 100% 29.96 in 10.0 mi Calm Calm - N/A   Clear